Location: Puketoi
(40.5833°S, 176.0167°E)
Time: 14:15:27
(UTC+00:00)

Cosmos 2219 - Pass Details

Date: 08 February 2023
Orbit: 834 x 858 km, 71.1° (Epoch: 31 March)

Event Time Altitude Azimuth Distance (km) Brightness Sun altitude
Rises 16:46:56 0° 215° (SW) 3,467 6.3 -8.7°
Reaches altitude 10° 16:49:45 10° 227° (SW) 2,522 5.5 -8.3°
Maximum altitude 16:54:30 27° 282° (WNW) 1,615 4.1 -7.5°
Drops below altitude 10° 16:59:11 10° 337° (NNW) 2,489 5.2 -6.7°
Sets 17:01:58 0° 349° (N) 3,413 6.0 -6.2°
